[[{"header":{"parameterUnit":"m.s-1","parameterCategory":1,"la1":30.2991,"la2":30.254,"lo1":-89.0895,"lo2":-89.0444,"dy":0.0017,"dx":0.0017,"nx":28,"ny":28,"refTime":"2025-07-17T09:00:00:Z","depth":0,"parameterNumber":2,"parameterNumberName":"U-component_of_WINDS"},"data":[0,0,0,0,0,0,0,0,0,0,0,0,0,0,0,0,0,0,0,0,0,0,0,0,0,0,0,0,0,0,0,0,0,0,0,0,0,0,0,0,0,0,0,0,0,0,0,0,0,0,0,0,0,0,0,0,0,0,0.5854,0.5853,0,0.5773,0.5772,0.5771,0.5694,0.5693,0.5692,0.5691,0.5607,0.5606,0.5604,0,0,0,0,0,0,0,0,0,0,0,0,0,0.5941,0.594,0.5854,0.5853,0.5852,0.5773,0.5772,0.5771,0.5694,0.5693,0.5691,0.569,0.5607,0.5606,0.5604,0,0,0,0,0,0,0,0,0,0,0,0,0,0.5886,0.594,0.5854,0.5804,0.5799,0.5773,0.5772,0.577,0.5694,0.5693,0.5691,0.569,0.5608,0.5606,0.5604,0.5621,0,0,0.5598,0.5597,0,0,0,0,0,0,0,0,0.5889,0.5883,0.5813,0.5808,0.5802,0.5742,0.5772,0.572,0.5694,0.5734,0.5691,0.5689,0.5653,0.5647,0.5635,0.5617,0.5613,0.5598,0.5596,0.5596,0.5595,0,0,0,0,0,0,0,0.5893,0.5886,0.5822,0.5812,0.5805,0.5785,0.5776,0.5761,0.5703,0.573,0.5725,0.5716,0.565,0.5637,0.5632,0.5612,0.5598,0.5596,0.5595,0.5594,0.5601,0.5602,0,0,0,0,0,0,0.5905,0.589,0.5825,0.582,0.5843,0.5785,0.5774,0.5763,0.5703,0.5692,0.5717,0.5713,0.5641,0.5635,0.5629,0.5643,0.5596,0.5594,0.5593,0.56,0.5601,0.5603,0,0,0,0,0,0,0.5907,0.59,0.5828,0.5853,0.5842,0.5785,0.5772,0.5762,0.5749,0.5693,0.5682,0.5716,0.564,0.5632,0.5623,0.5639,0.5593,0.5591,0.5598,0.56,0.5602,0.5673,0,0,0,0,0,0,0.591,0.5901,0.5907,0.5854,0.5841,0.5824,0.5773,0.5761,0.5746,0.5739,0.5688,0.5678,0.5638,0.5626,0.5621,0.5636,0.5589,0.5596,0.5599,0.5601,0.5669,0.5677,0.5684,0,0,0,0,0,0.5913,0.5931,0.5908,0.5901,0.5848,0.5825,0.5818,0.5771,0.5748,0.5753,0.5716,0.568,0.5639,0.5626,0.5619,0.5634,0.5595,0.5598,0.5601,0.5665,0.5675,0.5684,0,0,0,0,0,0,0.5988,0.5923,0.5897,0.5898,0.5868,0.5812,0.5817,0.5784,0.5759,0.5754,0.5697,0.5686,0.5683,0.5658,0.5645,0.5646,0.5612,0.5613,0.5662,0.5672,0.5679,0.5685,0.5588,0,0,0,0,0,0.6005,0.5992,0.5936,0.5942,0.5928,0.5876,0.5864,0.5831,0.5797,0.5783,0.5746,0.5714,0.5693,0.5681,0.566,0.5665,0.5651,0.5671,0.5679,0.5685,0.5687,0.5686,0.5693,0.5613,0.5613,0.5613,0,0,0.6039,0.6002,0.5997,0.5956,0.5928,0.5915,0.5865,0.5854,0.5843,0.5781,0.577,0.5742,0.5702,0.57,0.5697,0.5678,0.5707,0.5689,0.5695,0.5693,0.569,0.5698,0.5704,0.5615,0.5615,0.5614,0,0,0.6095,0.6066,0.6067,0.604,0.5999,0.5964,0.5964,0.5913,0.5892,0.588,0.5832,0.5819,0.5785,0.5758,0.574,0.5784,0.5748,0.5779,0.5818,0.5818,0.5824,0.5829,0.5843,0.5849,0.5781,0.5781,0.5781,0,0.6142,0.6121,0.6072,0.6063,0.6045,0.5989,0.5988,0.5965,0.5919,0.5907,0.5887,0.5843,0.5812,0.5802,0.5812,0.58,0.5797,0.5784,0.5827,0.5832,0.5836,0.5848,0.5854,0.5785,0.5784,0.5784,0.5784,0,0.6181,0.6167,0.6172,0.6129,0.6112,0.6108,0.6057,0.6045,0.6014,0.598,0.5967,0.5929,0.5897,0.5892,0.5862,0.5877,0.5866,0.5838,0.5802,0.5848,0.5859,0.5863,0.579,0.5789,0.5788,0.5787,0,0,0.6281,0.6209,0.6212,0.6191,0.6141,0.6128,0.6121,0.609,0.6081,0.6051,0.6042,0.6014,0.5986,0.5966,0.5931,0.5931,0.5965,0.5902,0.59,0.5913,0.5978,0.5998,0.6005,0.5942,0.5943,0.5943,0.598,0,0.6327,0.631,0.6265,0.6261,0.6247,0.6192,0.6185,0.6153,0.6122,0.6104,0.6069,0.6049,0.6015,0.6002,0.6,0.5962,0.5977,0.5959,0.5932,0.5931,0.5942,0.6011,0.6033,0.607,0.5984,0.5985,0.5985,0,0.6378,0.635,0.6346,0.6295,0.6287,0.6282,0.6248,0.6233,0.6195,0.6171,0.6148,0.611,0.6097,0.6065,0.6046,0.6035,0.6021,0.6,0.6001,0.5995,0.5961,0.6006,0.6081,0.6086,0.5992,0.5991,0.5991,0,0.6449,0.6411,0.6403,0.6387,0.6328,0.6325,0.63,0.626,0.6244,0.6215,0.6203,0.6174,0.6157,0.6134,0.6088,0.6069,0.6074,0.6038,0.6053,0.6054,0.6055,0.6056,0.6128,0.6049,0.6049,0.6049,0.6049,0,0.6504,0.6503,0.6434,0.6429,0.6425,0.6373,0.6371,0.6341,0.6306,0.6293,0.6244,0.6233,0.6173,0.6155,0.6119,0.6107,0.6101,0.608,0.607,0.6084,0.6086,0.6073,0.6069,0.605,0.605,0.605,0.605,0,0.6582,0.6537,0.6524,0.6469,0.6455,0.6454,0.6406,0.6398,0.6364,0.6348,0.6341,0.6286,0.6262,0.6214,0.6176,0.6152,0.6148,0.6132,0.6161,0.6154,0.6171,0.6169,0.6236,0.6241,0.6162,0.6162,0.6163,0,0.662,0.6617,0.6562,0.655,0.6526,0.6508,0.6491,0.6439,0.6423,0.6378,0.6376,0.6347,0.6322,0.6285,0.6241,0.6212,0.6193,0.6218,0.6188,0.6201,0.6191,0.6191,0.619,0.6225,0.6226,0.6227,0.6228,0,0.669,0.6667,0.6645,0.6614,0.6595,0.6568,0.6539,0.6531,0.6472,0.6457,0.6431,0.6411,0.6372,0.6344,0.6308,0.6281,0.6244,0.6238,0.6239,0.6252,0.6268,0.6258,0.6177,0.6236,0.6235,0.6235,0.6234,0.6234,0.6748,0.6742,0.6702,0.6678,0.665,0.6624,0.6613,0.6577,0.6555,0.6519,0.6489,0.6466,0.6426,0.6373,0.6348,0.6328,0.6311,0.6313,0.6314,0.6315,0.632,0.6273,0.6322,0.6321,0.6321,0.6321,0.6321,0,0.6814,0.6785,0.6764,0.6724,0.6704,0.6672,0.6637,0.6623,0.6603,0.6569,0.6545,0.6514,0.6486,0.644,0.6408,0.6401,0.6383,0.6394,0.6393,0.6387,0.6338,0.6339,0.6409,0.6409,0.6409,0.6409,0.6409,0.6409,0.6846,0.6835,0.6807,0.6781,0.6751,0.6728,0.6711,0.6685,0.6658,0.6626,0.6603,0.6573,0.6533,0.6498,0.647,0.6457,0.6447,0.6463,0.6444,0.6399,0.6391,0.6383,0.6384,0.6462,0.6462,0.6495,0.6495,0.6495]},{"header":{"parameterUnit":"m.s-1","parameterCategory":1,"la1":30.2991,"la2":30.254,"lo1":-89.0895,"lo2":-89.0444,"dy":0.0017,"dx":0.0017,"nx":28,"ny":28,"refTime":"2025-07-17T09:00:00:Z","depth":0,"parameterNumber":3,"parameterNumberName":"V-component_of_WINDS"},"data":[0,0,0,0,0,0,0,0,0,0,0,0,0,0,0,0,0,0,0,0,0,0,0,0,0,0,0,0,0,0,0,0,0,0,0,0,0,0,0,0,0,0,0,0,0,0,0,0,0,0,0,0,0,0,0,0,0,0,7.0089,7.009,0,7.0256,7.0258,7.026,7.0289,7.0288,7.0287,7.0285,7.0452,7.0457,7.0463,0,0,0,0,0,0,0,0,0,0,0,0,0,6.979,6.9795,7.0088,7.009,7.0093,7.0256,7.0258,7.026,7.029,7.0288,7.0286,7.0285,7.045,7.0457,7.0463,0,0,0,0,0,0,0,0,0,0,0,0,0,6.9934,6.9797,7.0088,7.0127,7.0132,7.0255,7.0258,7.0261,7.029,7.0288,7.0286,7.0284,7.0448,7.0456,7.0464,7.0559,0,0,7.0491,7.0494,0,0,0,0,0,0,0,0,6.9926,6.9945,7.0119,7.0125,7.0131,7.025,7.0214,7.0361,7.0291,7.023,7.0285,7.0283,7.0386,7.0399,7.0435,7.0567,7.0574,7.0491,7.0497,7.05,7.0503,0,0,0,0,0,0,0,6.9916,6.9938,7.0155,7.0122,7.0129,7.0135,7.0153,7.0242,7.0317,7.0235,7.0238,7.0257,7.0389,7.0427,7.0439,7.0576,7.0491,7.0499,7.0504,7.0507,7.0794,7.0796,0,0,0,0,0,0,6.99,6.993,7.0149,7.016,7.0021,7.0142,7.0162,7.0214,7.0316,7.033,7.0259,7.0258,7.0413,7.0429,7.0445,7.0563,7.05,7.0508,7.0513,7.0792,7.0795,7.0797,0,0,0,0,0,0,6.9893,6.9919,7.0142,7.0046,7.0074,7.0149,7.0207,7.0218,7.0256,7.0335,7.0348,7.0285,7.0412,7.0433,7.0531,7.0569,7.0512,7.052,7.0789,7.0793,7.0796,7.0798,0,0,0,0,0,0,6.9884,6.9916,6.9954,7.0046,7.008,7.0226,7.0209,7.0223,7.0272,7.0272,7.0362,7.0375,7.0412,7.0518,7.0539,7.058,7.0527,7.0786,7.079,7.0795,7.0795,7.0802,7.0807,0,0,0,0,0,6.9874,6.9947,6.9956,6.9982,7.0128,7.0229,7.0247,7.029,7.0275,7.0312,7.0363,7.0372,7.0562,7.0528,7.0552,7.0596,7.0783,7.0789,7.0794,7.0792,7.08,7.0807,0,0,0,0,0,0,6.9855,6.9959,6.997,7.0076,7.0143,7.0233,7.0282,7.0297,7.0369,7.0367,7.0415,7.0435,7.053,7.0573,7.0533,7.0693,7.0671,7.0682,7.0661,7.067,7.0676,7.0663,7.0534,0,0,0,0,0,6.9863,6.9937,7.0024,7.0109,7.0142,7.0207,7.0252,7.0279,7.0351,7.0379,7.0436,7.0504,7.0579,7.0627,7.07,7.0802,7.0822,7.0844,7.085,7.0855,7.0863,7.092,7.0931,7.0816,7.0816,7.0815,0,0,6.988,6.9947,6.999,7.0107,7.0162,7.0237,7.023,7.0309,7.0365,7.039,7.0486,7.0531,7.0609,7.071,7.0757,7.0748,7.09,7.0862,7.0865,7.0871,7.0927,7.0938,7.0948,7.0819,7.0819,7.0818,0,0,6.995,7.0008,7.0085,7.0142,7.0227,7.027,7.0288,7.0377,7.0408,7.0506,7.0527,7.0593,7.0721,7.0776,7.0821,7.0914,7.0924,7.0936,7.0967,7.1022,7.1031,7.104,7.1072,7.1084,7.0944,7.0944,7.0944,0,6.996,7.0075,7.0122,7.0202,7.0252,7.0281,7.0358,7.041,7.0514,7.0548,7.0537,7.0699,7.0754,7.0868,7.0891,7.0926,7.0948,7.0925,7.1027,7.1035,7.1044,7.1076,7.1088,7.0945,7.0945,7.0945,7.0945,0,7.0084,7.0163,7.0215,7.0317,7.0373,7.045,7.0508,7.0559,7.0583,7.0626,7.0725,7.0793,7.088,7.091,7.0932,7.1027,7.1019,7.1017,7.0996,7.1055,7.1085,7.1098,7.0946,7.0946,7.0946,7.0945,0,0,7.0144,7.0273,7.0291,7.0338,7.0435,7.0496,7.0575,7.0663,7.0706,7.0777,7.0843,7.0952,7.0952,7.1002,7.1032,7.108,7.115,7.1073,7.1075,7.1084,7.1258,7.1259,7.1272,7.1158,7.1161,7.1163,7.1252,0,7.0225,7.0369,7.0414,7.0533,7.0607,7.0636,7.0705,7.0771,7.0814,7.0882,7.0929,7.1005,7.0999,7.103,7.108,7.113,7.1185,7.1125,7.122,7.1222,7.1198,7.1288,7.1288,7.1369,7.1264,7.1266,7.1267,0,7.0338,7.0413,7.054,7.0629,7.0661,7.0722,7.0807,7.0872,7.0948,7.0975,7.1033,7.1059,7.1142,7.1118,7.1232,7.119,7.1232,7.1263,7.1267,7.1276,7.1247,7.1299,7.1396,7.1407,7.1287,7.1285,7.1284,0,7.0369,7.0502,7.0595,7.0634,7.074,7.0782,7.0828,7.0902,7.0952,7.1026,7.1059,7.114,7.1184,7.1247,7.1294,7.1272,7.1404,7.1383,7.1428,7.1427,7.1454,7.1451,7.1557,7.1482,7.1482,7.1482,7.1481,0,7.0454,7.053,7.0611,7.0668,7.0754,7.0806,7.0889,7.0936,7.1002,7.1069,7.1099,7.116,7.1219,7.1288,7.1325,7.1414,7.1434,7.1458,7.1466,7.1455,7.1452,7.1482,7.1477,7.1485,7.1484,7.1483,7.1483,0,7.0502,7.0559,7.0663,7.0755,7.078,7.084,7.0918,7.0975,7.102,7.1103,7.1126,7.1196,7.1279,7.1332,7.1437,7.1462,7.1559,7.1567,7.1534,7.1538,7.158,7.1575,7.1709,7.1729,7.164,7.1641,7.1642,0,7.0552,7.0612,7.0711,7.0759,7.0805,7.0881,7.0933,7.0986,7.1039,7.1131,7.1176,7.1261,7.1332,7.1463,7.1522,7.1603,7.1612,7.1653,7.1624,7.161,7.1612,7.1607,7.1614,7.1657,7.1658,7.1659,7.1659,0,7.0634,7.066,7.0734,7.0819,7.0881,7.095,7.1019,7.1056,7.1121,7.1178,7.1264,7.1319,7.1428,7.1512,7.1599,7.1644,7.1662,7.1668,7.1683,7.1671,7.1649,7.1661,7.1546,7.1664,7.1664,7.1663,7.1663,7.1663,7.0684,7.0739,7.0818,7.09,7.0958,7.1022,7.108,7.1134,7.1207,7.13,7.1327,7.1417,7.1492,7.161,7.1658,7.1728,7.1723,7.1744,7.1749,7.1754,7.1754,7.1639,7.1744,7.1744,7.1744,7.1744,7.1744,0,7.0768,7.0821,7.0896,7.0992,7.1057,7.1071,7.1148,7.1201,7.128,7.1349,7.1419,7.1518,7.16,7.1667,7.1752,7.1795,7.1806,7.1816,7.1812,7.1823,7.1754,7.1732,7.1806,7.1806,7.1806,7.1806,7.1806,7.1806,7.0819,7.0912,7.0947,7.107,7.1122,7.1211,7.1254,7.1313,7.1369,7.1479,7.1548,7.1592,7.166,7.1751,7.1826,7.1844,7.1873,7.1881,7.19,7.1834,7.1827,7.1821,7.1801,7.1887,7.1888,7.1963,7.1964,7.1965]}]]